| time (UTC) | temp F | wind direction | speed MPH | gust MPH | rain 1hr in | rain 24hr in | rain mn in | humidity % | barometer mb |
| 20260510023102 | 77 | 138 | 3.0 | 5.0 | 0.00 | 0.00 | 0.00 | 75 | 1008.6 |
| 20260510021532 | 78 | 126 | 3.0 | 7.0 | 0.00 | 0.00 | 0.00 | 75 | 1008.6 |
| 20260510020030 | 78 | 126 | 3.0 | 5.0 | 0.00 | 0.00 | 0.00 | 74 | 1008.3 |
| 20260510014552 | 79 | 118 | 2.0 | 4.0 | 0.00 | 0.00 | 0.00 | 74 | 1008.0 |
| 20260510013017 | 80 | 113 | 1.0 | 4.0 | 0.00 | 0.00 | 0.00 | 74 | 1007.8 |
| 20260510011559 | 81 | 115 | 2.0 | 4.0 | 0.00 | 0.00 | 0.00 | 74 | 1007.8 |
| 20260510010035 | 82 | 117 | 2.0 | 4.0 | 0.00 | 0.00 | 0.00 | 74 | 1007.5 |
| 20260510004511 | 83 | 142 | 2.0 | 5.0 | 0.00 | 0.00 | 0.00 | 74 | 1007.4 |
| 20260510003024 | 84 | 150 | 2.0 | 6.0 | 0.00 | 0.00 | 0.00 | 74 | 1007.3 |
| 20260510001504 | 85 | 149 | 2.0 | 6.0 | 0.00 | 0.00 | 0.00 | 75 | 1007.2 |
| 20260510000039 | 86 | 146 | 3.0 | 7.0 | 0.00 | 0.00 | 0.00 | 75 | 1007.2 |
| 20260509234515 | 86 | 155 | 3.0 | 8.0 | 0.00 | 0.00 | 0.00 | 76 | 1007.0 |
| 20260509233030 | 87 | 117 | 2.0 | 6.0 | 0.00 | 0.00 | 0.00 | 77 | 1007.1 |
| 20260509231526 | 87 | 126 | 1.0 | 4.0 | 0.00 | 0.00 | 0.00 | 78 | 1007.0 |
| 20260509230106 | 87 | 124 | 2.0 | 5.0 | 0.00 | 0.00 | 0.00 | 79 | 1006.8 |
| 20260509224526 | 87 | 105 | 0.0 | 3.0 | 0.00 | 0.00 | 0.00 | 80 | 1006.7 |
| 20260509223059 | 87 | 105 | 2.0 | 3.0 | 0.00 | 0.00 | 0.00 | 80 | 1006.7 |
| 20260509221513 | 86 | 300 | 2.0 | 5.0 | 0.00 | 0.00 | 0.00 | 82 | 1006.6 |
| 20260509220040 | 86 | 9 | 1.0 | 3.0 | 0.00 | 0.00 | 0.00 | 82 | 1006.8 |
| 20260509214508 | 86 | 47 | 1.0 | 8.0 | 0.00 | 0.00 | 0.00 | 83 | 1006.9 |
| 20260509213055 | 86 | 309 | 2.0 | 6.0 | 0.00 | 0.00 | 0.00 | 84 | 1007.1 |
| 20260509211519 | 85 | 263 | 2.0 | 10.0 | 0.00 | 0.00 | 0.00 | 85 | 1007.2 |
| 20260509210004 | 85 | 325 | 1.0 | 4.0 | 0.00 | 0.00 | 0.00 | 85 | 1007.3 |
| 20260509204515 | 84 | 289 | 1.0 | 5.0 | 0.00 | 0.00 | 0.00 | 86 | 1007.7 |
| 20260509203022 | 84 | 241 | 1.0 | 6.0 | 0.00 | 0.00 | 0.00 | 87 | 1008.0 |
| 20260509201631 | 84 | 284 | 1.0 | 5.0 | 0.00 | 0.00 | 0.00 | 87 | 1008.2 |
| 20260509200052 | 85 | 241 | 3.0 | 11.0 | 0.00 | 0.00 | 0.00 | 88 | 1008.2 |
| 20260509194503 | 85 | 199 | 4.0 | 10.0 | 0.00 | 0.00 | 0.00 | 89 | 1008.3 |
| 20260509193042 | 84 | 342 | 4.0 | 9.0 | 0.00 | 0.00 | 0.00 | 90 | 1008.4 |
| 20260509191506 | 84 | 246 | 3.0 | 8.0 | 0.00 | 0.00 | 0.00 | 90 | 1008.6 |
| 20260509190027 | 82 | 318 | 3.0 | 6.0 | 0.00 | 0.00 | 0.00 | 91 | 1008.9 |
| 20260509184519 | 81 | 286 | 2.0 | 5.0 | 0.00 | 0.00 | 0.00 | 91 | 1009.1 |
| 20260509183002 | 81 | 225 | 1.0 | 5.0 | 0.00 | 0.00 | 0.00 | 91 | 1009.2 |
| 20260509181543 | 82 | 221 | 3.0 | 9.0 | 0.00 | 0.00 | 0.00 | 91 | 1009.3 |
| 20260509180005 | 81 | 236 | 2.0 | 4.0 | 0.00 | 0.00 | 0.00 | 91 | 1009.6 |
| 20260509174609 | 81 | 224 | 1.0 | 8.0 | 0.00 | 0.00 | 0.00 | 92 | 1009.8 |
| 20260509173043 | 80 | 231 | 3.0 | 8.0 | 0.00 | 0.00 | 0.00 | 92 | 1009.8 |
| 20260509171509 | 80 | 194 | 4.0 | 7.0 | 0.00 | 0.00 | 0.00 | 92 | 1009.8 |
| 20260509170054 | 79 | 248 | 2.0 | 7.0 | 0.00 | 0.00 | 0.00 | 92 | 1010.0 |
| 20260509164600 | 78 | 241 | 3.0 | 9.0 | 0.00 | 0.00 | 0.00 | 92 | 1010.0 |
| 20260509163035 | 76 | 238 | 1.0 | 5.0 | 0.00 | 0.00 | 0.00 | 92 | 1010.1 |
| 20260509161522 | 75 | 286 | 2.0 | 5.0 | 0.00 | 0.00 | 0.00 | 92 | 1010.4 |
| 20260509160009 | 75 | 188 | 0.0 | 3.0 | 0.00 | 0.00 | 0.00 | 92 | 1010.3 |
| 20260509154527 | 74 | 186 | 0.0 | 2.0 | 0.00 | 0.00 | 0.00 | 91 | 1010.5 |
| 20260509153018 | 74 | 186 | 0.0 | 3.0 | 0.00 | 0.00 | 0.00 | 91 | 1010.7 |
| 20260509151602 | 74 | 171 | 0.0 | 5.0 | 0.00 | 0.00 | 0.00 | 91 | 1010.5 |
| 20260509150030 | 74 | 215 | 1.0 | 6.0 | 0.00 | 0.00 | 0.00 | 91 | 1010.3 |
| 20260509144511 | 74 | 216 | 2.0 | 7.0 | 0.00 | 0.00 | 0.00 | 91 | 1010.0 |
| 20260509143053 | 74 | 176 | 2.0 | 7.0 | 0.00 | 0.00 | 0.00 | 91 | 1009.4 |
| 20260509141519 | 73 | 156 | 1.0 | 5.0 | 0.00 | 0.00 | 0.00 | 91 | 1009.3 |
| 20260509140019 | 73 | 224 | 2.0 | 8.0 | 0.00 | 0.00 | 0.00 | 91 | 1009.5 |
| 20260509134505 | 73 | 196 | 1.0 | 8.0 | 0.00 | 0.00 | 0.00 | 91 | 1009.4 |